Weather in Stavotino

Russia / Yaroslavl Oblast     57°18′26″N   39°56′43″E
temp.,
°C
wind,
m/s
gust,
m/s
humid.,
%
clouds,
%
prec.,
mm/h
press.,
hPa
HPBL,
m
24 october, sun
sun2400:00+4w4888100 0.5 1006715
03:00+4w4785100 0.5 1007761
06:00+3wsw4894100 0.1 1007662
09:00+3w4796100 0.8 1008635
12:00+3w4795100 0.3 1010676
15:00+1nnw61296100 2.0 1012561
18:00+1nnw512786 0.3 10161092
21:00−1nnw512815 0.3 1019621
25 october, mon
mon2500:00−1nw411855 0.0 1021476
03:00−2nw410875 0.0 1024388
06:00−2wnw37935 0.0 1025267
09:00−1wnw3585100 0.0 1026277
12:00+1w3562100 0.0 1027664
15:00+2sw4863100 0.0 1025760
18:00+1sw51270100 0.0 1023556
21:00+2sw61375100 0.0 1022656
26 october, tue
tue2600:00+1wsw51380100 0.0 1021585
03:00+1wsw51385100 0.0 1020552
06:00+1wsw5128949 0.0 1019452
09:00+1wsw4118698 0.0 1019407
12:00+5wsw5107083 0.0 1018559
15:00+4sw51272100 0.0 1017591
18:00+3sw41380100 0.0 1017444
21:00+2sw51383100 0.0 1017449
27 october, wed
wed2700:00+2sw41285100 0.0 1016386
03:00+1sw4118988 0.0 1016338
06:00+1sw41189100 0.0 1015337
09:00+2sw51282100 0.0 1013441
12:00+5sw51272100 0.0 1012608
15:00+4wsw61288100 0.3 1011799
18:00+4wsw51293100 1.3 1012856
21:00+5wsw51290100 1.4 1012772
28 october, thu
thu2800:00+6w61384100 0.3 1012883
03:00+6w61281100 0.3 1013873
06:00+5w61285100 0.0 1014690
09:00+5w41081100 0.0 1015546
12:00+7w4974100 0.0 1015903
15:00+7w3873100 0.0 1015479
18:00+5w2587100 0.1 1016213
21:00+5nne3691100 0.4 1017723